Accueil
METAR-TAF:

METAR-TAF

Aéroports :

Brunswick County Airport

Southport, Caroline du Nord, États-Unis

latitude: 33-55-45N, longitude: 078-04-29W, altitude: 8 m

Observation

Le bulletin a été fait il y a 27 minutes, à 15:35 UTC
Vent 5 kt de nord
Température 17°C
Humidité 94%
Pression 1023 hPa
Visibilité: 16.1 km
Nuages fragmentés à une hauteur de 1000 ft
pluie faible

METAR: KSUT 191535Z AUTO 36005KT 10SM -RA BKN010 17/16 A3021 RMK AO2 T01680159

Heure: 11:02 (16:02 UTC)


TAF: absent

Observations et prévisions météorologiques de plus de 4000 aéroports (messages METAR et TAF).

Les stations disponibles sont représentées par des disques jaunes et rouges sur la carte.

Passer la souris dessus pour voir le nom de la station.

Cliquer dessus pour voir les observations et prévisions météorologiques.

Pour changer de carte: cliquez sur les boutons verts avec une croix noire pour zoomer, sur le bouton vert avec un tiret pour effectuer un zoom arrière, ou sur les flèches vertes pour les cartes adjacentes.


METAR-TAF: